Location: Nairn
(57.5833°N, 3.8667°W)
Time: 17:11:57
(UTC+00:00)

SL-4 R/B - Pass Details

Date: 07 August 2020
Orbit: 428 x 665 km, 51.6° (Epoch: 23 September)

Event Time Altitude Azimuth Distance (km) Brightness Sun altitude
Exits shadow 01:57:51 24° 185° (S) 946 2.7 -13.4°
Drops below altitude 10° 02:00:19 10° 140° (SE) 1,530 4.0 -13.3°
Sets 02:02:37 0° 126° (SE) 2,390 5.2 -13.2°
